Starlink 31188

operational
NORAD ID: 58804 Int'l Des: 2024-012 Owner: SPXS Country: US Constellation: starlink
LEOCIRCULAR

About Starlink 31188

Description loading...

Live Position

Loading 3D Globe...

Upcoming Passes

Altitude History

Altitude vs Time

uPlot chart will show altitude changes over time

Two-Line Element Set

1 58804U 24012T 25312.84846175 .00008158 00000-0 30560-3 0 9999
2 58804 42.9997 127.7957 0001228 275.2776 84.7935 15.27582970102751
Epoch: Nov 8, 2025 • Age: 35 hours

Current Status

Altitude 484.3 km
Velocity 7.63 km/s
Sub-Earth Point 31.75°N, 4.64°E
Launch Date Jan 15, 2024
Age 1.8 years
Type internet

Technical Details

Classification Payload
Mass 730.00 kg
Dry Mass 700.00 kg
Total Mass 730.00 kg
Length 0.30 m
Diameter 4.10 m
Span 29.00 m
Shape Box + pan
Manufacturer SPXS
Bus Type Starlink V2M
Phase Status In Orbit
Owner/State SPXS/US

Large Constellations

Loading constellations...